When you browse on this site, cookies collect data to enhance your experience and personalize the content and advertising you see.
Visit our Privacy Policy to learn more. By continuing to use the site, you agree to this use of cookies and data.
  • In Hungary
  • List of Countries
  • For 7 days
  • Water Temperature
  • Weather Map
  • News
  • Weather Widgets
  • user-avatar
    Login

    Hourly Weather Kalininskoe

    Today, 22 January, Wednesday

    Time Temperature Precipitation Wind Pressure Humidity
    00:00 -5°C° 0.9 mm 8 mps 744 mmHg 96%
    01:00 -4°C° 0.9 mm 8 mps 743 mmHg 97%
    02:00 -4°C° 0.9 mm 8 mps 742 mmHg 97%
    03:00 -4°C° 0.9 mm 8 mps 741 mmHg 98%
    04:00 -2°C° 0.6 mm 8 mps 741 mmHg 98%
    05:00 -2°C° 0.6 mm 8 mps 740 mmHg 98%
    06:00 -2°C° 0.6 mm 8 mps 739 mmHg 98%
    07:00 -2°C° 0.1 mm 8 mps 739 mmHg 97%
    08:00 -1°C° 0.1 mm 8 mps 739 mmHg 96%
    09:00 -1°C° 0.1 mm 7 mps 739 mmHg 95%
    10:00 -2°C° 0 mm 7 mps 740 mmHg 96%
    11:00 -2°C° 0 mm 7 mps 740 mmHg 96%
    12:00 -2°C° 0 mm 7 mps 740 mmHg 96%
    13:00 -3°C° 0 mm 7 mps 740 mmHg 92%
    14:00 -3°C° 0 mm 7 mps 741 mmHg 89%
    15:00 -3°C° 0 mm 7 mps 741 mmHg 85%
    16:00 -4°C° 0 mm 6 mps 741 mmHg 86%
    17:00 -4°C° 0 mm 5 mps 740 mmHg 87%
    18:00 -3°C° 0 mm 4 mps 740 mmHg 88%
    19:00 -4°C° 0 mm 4 mps 740 mmHg 89%
    20:00 -4°C° 0 mm 4 mps 740 mmHg 89%
    21:00 -4°C° 0 mm 4 mps 740 mmHg 89%
    22:00 -5°C° 0 mm 3 mps 740 mmHg 91%
    23:00 -6°C° 0 mm 3 mps 739 mmHg 92%

    Tomorrow, 23 January, Thursday

    Time Temperature Precipitation Wind Pressure Humidity
    00:00 -7°C° 0 mm 3 mps 739 mmHg 93%
    01:00 -6°C° 0 mm 3 mps 739 mmHg 93%
    02:00 -6°C° 0 mm 3 mps 739 mmHg 93%
    03:00 -6°C° 0 mm 3 mps 739 mmHg 93%
    04:00 -7°C° 0 mm 3 mps 739 mmHg 93%
    05:00 -7°C° 0 mm 3 mps 739 mmHg 93%
    06:00 -7°C° 0 mm 3 mps 739 mmHg 93%
    07:00 -7°C° 0 mm 3 mps 739 mmHg 93%
    08:00 -8°C° 0 mm 4 mps 740 mmHg 93%
    09:00 -8°C° 0 mm 4 mps 741 mmHg 92%
    10:00 -8°C° 0 mm 4 mps 741 mmHg 92%
    11:00 -7°C° 0 mm 4 mps 741 mmHg 91%
    12:00 -7°C° 0 mm 5 mps 741 mmHg 90%
    13:00 -7°C° 0 mm 5 mps 742 mmHg 89%
    14:00 -8°C° 0 mm 5 mps 742 mmHg 89%
    15:00 -8°C° 0 mm 5 mps 743 mmHg 89%
    16:00 -8°C° 0 mm 5 mps 743 mmHg 89%
    17:00 -9°C° 0 mm 4 mps 744 mmHg 89%
    18:00 -10°C° 0 mm 4 mps 745 mmHg 90%
    19:00 -10°C° 0 mm 4 mps 745 mmHg 90%
    20:00 -10°C° 0 mm 4 mps 746 mmHg 90%
    21:00 -10°C° 0 mm 4 mps 747 mmHg 90%
    22:00 -11°C° 0 mm 4 mps 747 mmHg 90%
    23:00 -12°C° 0 mm 4 mps 748 mmHg 90%

    Day after tomorrow, 24 January, Friday

    Time Temperature Precipitation Wind Pressure Humidity
    00:00 -14°C° 0 mm 4 mps 749 mmHg 89%
    01:00 -15°C° 0 mm 4 mps 749 mmHg 90%
    02:00 -15°C° 0 mm 4 mps 750 mmHg 90%
    03:00 -16°C° 0 mm 4 mps 751 mmHg 90%
    04:00 -15°C° 0 mm 3 mps 751 mmHg 91%
    05:00 -15°C° 0 mm 3 mps 752 mmHg 92%
    06:00 -16°C° 0 mm 3 mps 752 mmHg 92%
    07:00 -16°C° 0 mm 3 mps 753 mmHg 92%
    08:00 -15°C° 0 mm 3 mps 754 mmHg 92%
    09:00 -16°C° 0 mm 4 mps 754 mmHg 92%
    10:00 -15°C° 0 mm 4 mps 754 mmHg 91%
    11:00 -15°C° 0 mm 4 mps 755 mmHg 90%
    12:00 -14°C° 0 mm 4 mps 755 mmHg 90%
    13:00 -14°C° 0 mm 4 mps 755 mmHg 89%
    14:00 -12°C° 0 mm 4 mps 755 mmHg 89%
    15:00 -12°C° 0 mm 4 mps 754 mmHg 88%
    16:00 -13°C° 0 mm 5 mps 754 mmHg 87%
    17:00 -14°C° 0 mm 5 mps 754 mmHg 87%
    18:00 -14°C° 0 mm 5 mps 754 mmHg 86%
    19:00 -14°C° 0 mm 5 mps 754 mmHg 86%
    20:00 -13°C° 0 mm 5 mps 754 mmHg 87%
    21:00 -14°C° 0 mm 6 mps 754 mmHg 87%
    22:00 -12°C° 0.1 mm 6 mps 753 mmHg 89%
    23:00 -12°C° 0.1 mm 7 mps 752 mmHg 91%

    25 January, Saturday

    Time Temperature Precipitation Wind Pressure Humidity
    00:00 -11°C° 0.1 mm 7 mps 752 mmHg 93%
    01:00 -10°C° 0.3 mm 8 mps 751 mmHg 93%
    02:00 -8°C° 0.3 mm 8 mps 751 mmHg 93%
    03:00 -8°C° 0.3 mm 8 mps 750 mmHg 93%
    04:00 -7°C° 0.3 mm 7 mps 750 mmHg 94%
    05:00 -7°C° 0.3 mm 7 mps 750 mmHg 95%
    06:00 -6°C° 0.3 mm 6 mps 749 mmHg 95%
    07:00 -5°C° 0.4 mm 6 mps 749 mmHg 95%
    08:00 -5°C° 0.4 mm 6 mps 749 mmHg 94%
    09:00 -4°C° 0.4 mm 6 mps 749 mmHg 94%
    10:00 -4°C° 0.2 mm 6 mps 749 mmHg 94%
    11:00 -3°C° 0.2 mm 6 mps 749 mmHg 95%
    12:00 -3°C° 0.2 mm 6 mps 749 mmHg 95%
    13:00 -2°C° 0 mm 6 mps 749 mmHg 96%
    14:00 -2°C° 0 mm 6 mps 749 mmHg 96%
    15:00 -2°C° 0 mm 6 mps 749 mmHg 97%
    16:00 -2°C° 0.1 mm 6 mps 749 mmHg 97%
    17:00 -2°C° 0.1 mm 6 mps 749 mmHg 97%
    18:00 -2°C° 0.1 mm 6 mps 749 mmHg 97%
    19:00 -2°C° 0 mm 6 mps 748 mmHg 97%
    20:00 -2°C° 0 mm 6 mps 748 mmHg 97%
    21:00 -2°C° 0 mm 6 mps 748 mmHg 97%
    22:00 -2°C° 0 mm 6 mps 748 mmHg 95%
    23:00 -2°C° 0 mm 6 mps 747 mmHg 94%

    26 January, Sunday

    Time Temperature Precipitation Wind Pressure Humidity
    00:00 -2°C° 0 mm 5 mps 747 mmHg 92%
    01:00 -2°C° 0 mm 6 mps 747 mmHg 92%
    02:00 -2°C° 0 mm 6 mps 747 mmHg 92%
    03:00 -2°C° 0 mm 7 mps 747 mmHg 92%
    04:00 -3°C° 0 mm 7 mps 746 mmHg 90%
    05:00 -3°C° 0 mm 7 mps 746 mmHg 89%
    06:00 -3°C° 0 mm 7 mps 746 mmHg 87%
    07:00 -3°C° 0 mm 7 mps 746 mmHg 87%
    08:00 -3°C° 0 mm 7 mps 746 mmHg 86%
    09:00 -3°C° 0 mm 7 mps 747 mmHg 86%
    10:00 -3°C° 0 mm 7 mps 747 mmHg 85%
    11:00 -4°C° 0 mm 8 mps 747 mmHg 84%
    12:00 -4°C° 0 mm 8 mps 747 mmHg 84%
    13:00 -3°C° 0 mm 7 mps 748 mmHg 83%
    14:00 -4°C° 0 mm 7 mps 748 mmHg 82%
    15:00 -5°C° 0 mm 6 mps 749 mmHg 81%
    16:00 -5°C° 0 mm 6 mps 749 mmHg 82%
    17:00 -6°C° 0 mm 6 mps 750 mmHg 83%
    18:00 -6°C° 0 mm 6 mps 751 mmHg 83%
    19:00 -8°C° 0 mm 6 mps 751 mmHg 85%
    20:00 -8°C° 0 mm 6 mps 752 mmHg 86%
    21:00 -8°C° 0 mm 5 mps 753 mmHg 87%
    22:00 -8°C° 0 mm 5 mps 753 mmHg 88%
    23:00 -8°C° 0 mm 5 mps 754 mmHg 88%

    27 January, Monday

    Time Temperature Precipitation Wind Pressure Humidity
    00:00 -10°C° 0 mm 5 mps 755 mmHg 88%
    01:00 -10°C° 0 mm 5 mps 755 mmHg 89%
    02:00 -10°C° 0 mm 4 mps 756 mmHg 89%
    03:00 -10°C° 0 mm 4 mps 757 mmHg 90%
    04:00 -10°C° 0 mm 4 mps 757 mmHg 90%
    05:00 -11°C° 0 mm 4 mps 758 mmHg 90%
    06:00 -10°C° 0 mm 3 mps 759 mmHg 91%
    07:00 -10°C° 0 mm 3 mps 759 mmHg 91%
    08:00 -10°C° 0 mm 3 mps 760 mmHg 91%
    09:00 -10°C° 0 mm 3 mps 761 mmHg 92%
    10:00 -9°C° 0 mm 3 mps 761 mmHg 91%
    11:00 -9°C° 0 mm 3 mps 761 mmHg 91%
    12:00 -8°C° 0 mm 3 mps 762 mmHg 90%
    13:00 -8°C° 0 mm 3 mps 762 mmHg 90%
    14:00 -8°C° 0 mm 3 mps 762 mmHg 90%
    15:00 -6°C° 0 mm 2 mps 762 mmHg 89%
    16:00 -7°C° 0 mm 2 mps 762 mmHg 89%
    17:00 -8°C° 0 mm 3 mps 763 mmHg 88%
    18:00 -9°C° 0 mm 3 mps 763 mmHg 88%
    19:00 -9°C° 0 mm 3 mps 763 mmHg 88%
    20:00 -9°C° 0 mm 3 mps 763 mmHg 88%
    21:00 -9°C° 0 mm 3 mps 763 mmHg 88%
    22:00 -10°C° 0 mm 4 mps 763 mmHg 88%
    23:00 -9°C° 0 mm 4 mps 763 mmHg 87%
    Show more